{"data":{"norad_id":63909,"epoch":"2026-09-20T03:09:26.496288Z","epoch_age_seconds":178895,"freshness":"STALE","line1":"1 63909U 25095V   26263.13155667  .00005110  00000+0  19507-3 0  9992","line2":"2 63909  43.0008 158.2384 0001310 270.5822  89.4880 15.27585635 77510","mean_motion":15.27585635,"eccentricity":0.000131,"inclination_deg":43.0008,"raan_deg":158.2384,"arg_perigee_deg":270.5822,"mean_anomaly_deg":89.488,"bstar":0.00019507,"rev_number":7751,"period_min":94.26640097987,"perigee_km":482.13340970614,"apogee_km":483.93103604254,"semimajor_km":6861.1692228743,"source":"CELESTRAK","updated_at":"2026-09-21T09:00:35.146822Z"}}